VKG2565 LGRP-LGSK

Flight info

Callsign VKG2565
Flight time 0h 54m
Altitude 32000
Route LGRP/24 N0453F320 VANE2P VANES UM601 ADESO UN133 KOROS/N0415F240 W58 SKP DCT LGSK/01
Aircraft A320/M-V/N

Departure

Time 2026-04-08 13:49
Airport Rhodes International Airport "Diagoras" (LGRP)

Arrival

Time 2026-04-08 14:43
Airport Skiathos Island National Airport (LGSK)
Time Latitude Longitude Altitude Speed Heading
2026-04-08 13:40 36.40359 28.09162 23 ft 0 kts 149°
2026-04-08 13:42 36.40361 28.09161 23 ft 2 kts 149°
2026-04-08 13:42 36.40376 28.09150 26 ft 2 kts 149°
2026-04-08 13:43 36.40390 28.09139 26 ft 2 kts 149°
2026-04-08 13:43 36.40405 28.09128 26 ft 2 kts 133°
2026-04-08 13:43 36.40412 28.09110 25 ft 2 kts 62°
2026-04-08 13:43 36.40400 28.09096 26 ft 3 kts 358°
2026-04-08 13:44 36.40384 28.09100 25 ft 0 kts 336°
2026-04-08 13:44 36.40387 28.09098 26 ft 3 kts 336°
2026-04-08 13:45 36.40429 28.09132 27 ft 14 kts 63°
2026-04-08 13:45 36.40471 28.09232 24 ft 12 kts 63°
2026-04-08 13:45 36.40512 28.09313 24 ft 10 kts 56°
2026-04-08 13:45 36.40551 28.09381 24 ft 9 kts 53°
2026-04-08 13:46 36.40586 28.09442 24 ft 10 kts 62°
2026-04-08 13:46 36.40639 28.09597 24 ft 25 kts 72°
2026-04-08 13:46 36.40694 28.09794 24 ft 23 kts 69°
2026-04-08 13:46 36.40751 28.09976 25 ft 22 kts 69°
2026-04-08 13:47 36.40798 28.10144 23 ft 20 kts 70°
2026-04-08 13:47 36.40843 28.10299 24 ft 18 kts 70°
2026-04-08 13:47 36.40883 28.10421 24 ft 13 kts 49°
2026-04-08 13:47 36.40979 28.10391 23 ft 22 kts 310°
2026-04-08 13:48 36.41006 28.10212 23 ft 23 kts 252°
2026-04-08 13:48 36.40892 28.09823 23 ft 81 kts 250°
2026-04-08 13:48 36.40630 28.08933 24 ft 136 kts 250°
2026-04-08 13:48 36.40258 28.07697 318 ft 155 kts 252°
2026-04-08 13:49 36.39903 28.06443 1079 ft 155 kts 252°
2026-04-08 13:49 36.39543 28.05166 1823 ft 157 kts 253°
2026-04-08 13:49 36.39160 28.03804 2169 ft 181 kts 253°
2026-04-08 13:49 36.38722 28.02237 2438 ft 203 kts 253°
2026-04-08 13:50 36.38243 28.00534 2937 ft 215 kts 253°
2026-04-08 13:50 36.37734 27.98747 3674 ft 216 kts 253°
2026-04-08 13:50 36.37232 27.96989 4562 ft 216 kts 253°
2026-04-08 13:50 36.36731 27.95222 5368 ft 217 kts 254°
2026-04-08 13:51 36.36277 27.93452 6137 ft 217 kts 263°
2026-04-08 13:51 36.36215 27.91596 6932 ft 213 kts 280°
2026-04-08 13:51 36.36448 27.89776 7702 ft 214 kts 281°
2026-04-08 13:51 36.36744 27.87934 8279 ft 225 kts 293°
2026-04-08 13:52 36.37639 27.86232 8607 ft 248 kts 308°
2026-04-08 13:52 36.38732 27.84527 9189 ft 259 kts 308°
2026-04-08 13:52 36.39856 27.82746 9990 ft 263 kts 307°
2026-04-08 13:52 36.41011 27.80905 10453 ft 280 kts 307°
2026-04-08 13:53 36.42240 27.78940 10669 ft 303 kts 307°
2026-04-08 13:53 36.43575 27.76805 11008 ft 319 kts 307°
2026-04-08 13:53 36.44952 27.74600 11656 ft 324 kts 307°
2026-04-08 13:53 36.46343 27.72374 12381 ft 327 kts 307°
2026-04-08 13:54 36.47747 27.70131 13128 ft 330 kts 307°
2026-04-08 13:54 36.49161 27.67875 13856 ft 332 kts 307°
2026-04-08 13:54 36.50585 27.65598 14505 ft 335 kts 307°
2026-04-08 13:54 36.52020 27.63303 15153 ft 337 kts 307°
2026-04-08 13:55 36.53447 27.61018 15785 ft 339 kts 307°
2026-04-08 13:55 36.54901 27.58685 16415 ft 342 kts 307°
2026-04-08 13:55 36.56361 27.56339 17028 ft 344 kts 307°
2026-04-08 13:55 36.57833 27.53973 17638 ft 347 kts 307°
2026-04-08 13:56 36.59317 27.51589 18239 ft 349 kts 307°
2026-04-08 13:56 36.60812 27.49186 18734 ft 352 kts 307°
2026-04-08 13:56 36.62318 27.46765 19246 ft 354 kts 307°
2026-04-08 13:56 36.63833 27.44328 19741 ft 357 kts 307°
2026-04-08 13:57 36.65359 27.41873 20236 ft 360 kts 307°
2026-04-08 13:57 36.66879 27.39427 20714 ft 362 kts 307°
2026-04-08 13:57 36.68426 27.36936 21186 ft 365 kts 307°
2026-04-08 13:57 36.69988 27.34416 21664 ft 367 kts 307°
2026-04-08 13:58 36.71551 27.31889 22125 ft 370 kts 306°
2026-04-08 13:58 36.73129 27.29332 22579 ft 373 kts 306°
2026-04-08 13:58 36.74719 27.26756 23024 ft 375 kts 306°
2026-04-08 13:58 36.76320 27.24162 23450 ft 379 kts 307°
2026-04-08 13:59 36.77915 27.21578 23819 ft 381 kts 307°
2026-04-08 13:59 36.79557 27.18912 24199 ft 384 kts 306°
2026-04-08 13:59 36.81167 27.16297 24575 ft 385 kts 306°
2026-04-08 13:59 36.82803 27.13633 24931 ft 387 kts 306°
2026-04-08 14:00 36.84450 27.10950 25297 ft 389 kts 306°
2026-04-08 14:00 36.86103 27.08261 25660 ft 391 kts 306°
2026-04-08 14:00 36.87762 27.05558 26013 ft 393 kts 306°
2026-04-08 14:00 36.89428 27.02841 26363 ft 395 kts 306°
2026-04-08 14:01 36.91106 27.00106 26714 ft 396 kts 306°
2026-04-08 14:01 36.92789 26.97359 27054 ft 398 kts 306°
2026-04-08 14:01 36.94506 26.94551 27399 ft 401 kts 306°
2026-04-08 14:01 36.96173 26.91824 27728 ft 402 kts 306°
2026-04-08 14:02 36.97876 26.89039 28054 ft 404 kts 306°
2026-04-08 14:02 36.99586 26.86243 28350 ft 406 kts 306°
2026-04-08 14:02 37.03001 26.80638 28918 ft 410 kts 306°
2026-04-08 14:03 37.04735 26.77789 29210 ft 411 kts 306°
2026-04-08 14:03 37.06474 26.74933 29494 ft 413 kts 306°
2026-04-08 14:03 37.08217 26.72069 29828 ft 413 kts 306°
2026-04-08 14:03 37.09961 26.69203 30220 ft 412 kts 306°
2026-04-08 14:04 37.11692 26.66354 30589 ft 411 kts 306°
2026-04-08 14:04 37.13421 26.63502 30944 ft 409 kts 306°
2026-04-08 14:04 37.15142 26.60660 31276 ft 409 kts 306°
2026-04-08 14:04 37.16856 26.57825 31590 ft 408 kts 306°
2026-04-08 14:05 37.18572 26.54986 31881 ft 408 kts 306°
2026-04-08 14:05 37.20285 26.52149 31966 ft 408 kts 306°
2026-04-08 14:05 37.23684 26.46519 31979 ft 406 kts 306°
2026-04-08 14:06 37.27099 26.40848 31987 ft 406 kts 306°
2026-04-08 14:06 37.30487 26.35215 31985 ft 406 kts 306°
2026-04-08 14:07 37.33899 26.29532 31993 ft 406 kts 306°
2026-04-08 14:07 37.37284 26.23892 31986 ft 406 kts 306°
2026-04-08 14:08 37.40690 26.18206 31990 ft 406 kts 306°
2026-04-08 14:08 37.44077 26.12539 31991 ft 406 kts 306°
2026-04-08 14:09 37.46925 26.07763 32004 ft 407 kts 306°
2026-04-08 14:09 37.50304 26.02091 32000 ft 407 kts 306°
2026-04-08 14:10 37.53725 25.96330 32004 ft 407 kts 306°
2026-04-08 14:10 37.57091 25.90645 32009 ft 406 kts 306°
2026-04-08 14:11 37.60657 25.85125 32010 ft 407 kts 311°
2026-04-08 14:11 37.64471 25.79901 32001 ft 406 kts 311°
2026-04-08 14:12 37.68304 25.74645 32016 ft 406 kts 311°
2026-04-08 14:12 37.72131 25.69381 32007 ft 406 kts 311°
2026-04-08 14:13 37.75924 25.64145 32004 ft 406 kts 311°
2026-04-08 14:13 37.79743 25.58872 31996 ft 406 kts 311°
2026-04-08 14:14 37.85469 25.50953 32003 ft 406 kts 311°
2026-04-08 14:15 37.89255 25.45698 32006 ft 406 kts 311°
2026-04-08 14:15 37.93066 25.40404 32007 ft 406 kts 311°
2026-04-08 14:16 37.96873 25.35098 32008 ft 406 kts 311°
2026-04-08 14:16 38.00678 25.29792 32007 ft 406 kts 311°
2026-04-08 14:17 38.04485 25.24482 32018 ft 406 kts 311°
2026-04-08 14:17 38.08261 25.19198 32014 ft 406 kts 311°
2026-04-08 14:18 38.12064 25.13860 32025 ft 406 kts 311°
2026-04-08 14:18 38.15852 25.08536 32022 ft 406 kts 311°
2026-04-08 14:19 38.19627 25.03242 32024 ft 406 kts 311°
2026-04-08 14:19 38.23422 24.97906 32020 ft 406 kts 311°
2026-04-08 14:20 38.27206 24.92561 32016 ft 406 kts 311°
2026-04-08 14:20 38.30980 24.87225 31829 ft 408 kts 311°
2026-04-08 14:20 38.32898 24.84513 30788 ft 415 kts 311°
2026-04-08 14:21 38.34840 24.81766 29688 ft 420 kts 311°
2026-04-08 14:21 38.36798 24.78988 28816 ft 418 kts 310°
2026-04-08 14:21 38.38721 24.76257 28290 ft 409 kts 310°
2026-04-08 14:21 38.40583 24.73613 27678 ft 403 kts 310°
2026-04-08 14:22 38.42452 24.70962 27071 ft 397 kts 311°
2026-04-08 14:22 38.44290 24.68356 26491 ft 392 kts 310°
2026-04-08 14:22 38.46101 24.65783 25913 ft 387 kts 310°
2026-04-08 14:22 38.47890 24.63233 25347 ft 382 kts 310°
2026-04-08 14:23 38.49638 24.60735 24787 ft 378 kts 310°
2026-04-08 14:23 38.51376 24.58248 24240 ft 374 kts 310°
2026-04-08 14:23 38.53102 24.55777 23699 ft 370 kts 310°
2026-04-08 14:23 38.54808 24.53342 23097 ft 365 kts 311°
2026-04-08 14:24 38.56493 24.50943 22587 ft 359 kts 311°
2026-04-08 14:24 38.58148 24.48585 22118 ft 353 kts 311°
2026-04-08 14:24 38.59779 24.46251 21644 ft 348 kts 311°
2026-04-08 14:24 38.61357 24.43989 21214 ft 342 kts 311°
2026-04-08 14:25 38.62933 24.41728 20781 ft 337 kts 311°
2026-04-08 14:25 38.64488 24.39493 20374 ft 334 kts 311°
2026-04-08 14:25 38.66029 24.37272 19980 ft 333 kts 311°
2026-04-08 14:25 38.67564 24.35059 19577 ft 332 kts 311°
2026-04-08 14:26 38.69093 24.32856 19165 ft 330 kts 311°
2026-04-08 14:26 38.70602 24.30684 18792 ft 329 kts 311°
2026-04-08 14:26 38.72121 24.28500 18210 ft 331 kts 312°
2026-04-08 14:26 38.73686 24.26252 17258 ft 341 kts 311°
2026-04-08 14:27 38.75268 24.23974 16634 ft 342 kts 311°
2026-04-08 14:27 38.76826 24.21728 16108 ft 340 kts 311°
2026-04-08 14:27 38.78394 24.19463 15608 ft 337 kts 311°
2026-04-08 14:27 38.79950 24.17211 15116 ft 335 kts 311°
2026-04-08 14:28 38.81487 24.14984 14640 ft 332 kts 311°
2026-04-08 14:28 38.83021 24.12762 14177 ft 330 kts 311°
2026-04-08 14:28 38.84522 24.10588 13700 ft 328 kts 311°
2026-04-08 14:28 38.86036 24.08391 13162 ft 326 kts 311°
2026-04-08 14:29 38.87530 24.06221 12608 ft 324 kts 311°
2026-04-08 14:29 38.89019 24.04059 12034 ft 322 kts 311°
2026-04-08 14:29 38.90500 24.01911 11508 ft 320 kts 311°
2026-04-08 14:29 38.91948 23.99809 10997 ft 317 kts 311°
2026-04-08 14:30 38.93408 23.97685 10476 ft 315 kts 310°
2026-04-08 14:30 38.94853 23.95583 9984 ft 313 kts 310°
2026-04-08 14:30 38.96269 23.93524 9830 ft 299 kts 310°
2026-04-08 14:30 38.97621 23.91555 9683 ft 287 kts 310°
2026-04-08 14:31 38.98913 23.89670 9559 ft 275 kts 310°
2026-04-08 14:31 39.00151 23.87864 9420 ft 264 kts 310°
2026-04-08 14:31 39.01333 23.86137 9169 ft 258 kts 310°
2026-04-08 14:31 39.02527 23.84389 8787 ft 256 kts 310°
2026-04-08 14:32 39.03687 23.82688 8381 ft 256 kts 310°
2026-04-08 14:32 39.04864 23.80965 7983 ft 256 kts 310°
2026-04-08 14:32 39.06040 23.79241 7547 ft 256 kts 310°
2026-04-08 14:32 39.07219 23.77513 7129 ft 256 kts 310°
2026-04-08 14:33 39.08384 23.75807 6736 ft 255 kts 310°
2026-04-08 14:33 39.09559 23.74088 6379 ft 255 kts 310°
2026-04-08 14:33 39.10730 23.72374 6007 ft 253 kts 311°
2026-04-08 14:33 39.11870 23.70706 5871 ft 241 kts 311°
2026-04-08 14:34 39.12953 23.69118 5679 ft 230 kts 311°
2026-04-08 14:34 39.13962 23.67634 5560 ft 218 kts 311°
2026-04-08 14:34 39.14940 23.66194 5410 ft 209 kts 312°
2026-04-08 14:34 39.15765 23.64691 5307 ft 205 kts 295°
2026-04-08 14:35 39.16057 23.62911 5177 ft 204 kts 272°
2026-04-08 14:35 39.15757 23.61138 5038 ft 204 kts 249°
2026-04-08 14:35 39.14916 23.59679 4885 ft 205 kts 225°
2026-04-08 14:35 39.13690 23.58716 4572 ft 208 kts 210°
2026-04-08 14:36 39.12390 23.57874 4212 ft 209 kts 210°
2026-04-08 14:36 39.11098 23.57034 3818 ft 211 kts 210°
2026-04-08 14:36 39.09792 23.56184 3629 ft 209 kts 208°
2026-04-08 14:36 39.08496 23.55340 3353 ft 208 kts 208°
2026-04-08 14:37 39.07195 23.54493 3001 ft 209 kts 209°
2026-04-08 14:37 39.05899 23.53649 2641 ft 211 kts 209°
2026-04-08 14:37 39.04559 23.52778 2302 ft 212 kts 209°
2026-04-08 14:37 39.03260 23.51930 2036 ft 212 kts 209°
2026-04-08 14:38 39.02001 23.50954 1936 ft 209 kts 229°
2026-04-08 14:38 39.01461 23.49350 1816 ft 190 kts 279°
2026-04-08 14:38 39.01912 23.47997 1791 ft 152 kts 321°
2026-04-08 14:38 39.02760 23.47359 1795 ft 137 kts 345°
2026-04-08 14:39 39.03658 23.46956 1772 ft 136 kts 344°
2026-04-08 14:39 39.04578 23.46623 1801 ft 140 kts 355°
2026-04-08 14:39 39.05549 23.46705 1779 ft 142 kts 13°
2026-04-08 14:39 39.06508 23.47009 1712 ft 142 kts 13°
2026-04-08 14:40 39.07469 23.47307 1649 ft 141 kts 12°
2026-04-08 14:40 39.08414 23.47599 1590 ft 141 kts 12°
2026-04-08 14:40 39.09374 23.47892 1551 ft 142 kts 12°
2026-04-08 14:40 39.10330 23.48096 1434 ft 140 kts
2026-04-08 14:41 39.11317 23.48123 1222 ft 144 kts 359°
2026-04-08 14:41 39.12344 23.48153 911 ft 148 kts
2026-04-08 14:41 39.13331 23.48461 715 ft 146 kts 17°
2026-04-08 14:41 39.14281 23.48843 545 ft 143 kts 16°
2026-04-08 14:42 39.15223 23.49256 459 ft 140 kts 18°
2026-04-08 14:42 39.16135 23.49640 277 ft 139 kts 14°
2026-04-08 14:42 39.17039 23.50066 71 ft 140 kts 16°
2026-04-08 14:42 39.17886 23.50432 41 ft 102 kts 18°
2026-04-08 14:43 39.18284 23.50608 55 ft 24 kts 18°
2026-04-08 14:43 39.18349 23.50649 52 ft 5 kts 30°
2026-04-08 14:43 39.18403 23.50680 59 ft 14 kts
2026-04-08 14:43 39.18413 23.50652 60 ft 7 kts 200°
2026-04-08 14:44 39.18255 23.50599 48 ft 32 kts 200°
2026-04-08 14:44 39.18035 23.50490 46 ft 36 kts 201°
2026-04-08 14:44 39.17926 23.50398 42 ft 13 kts 272°
2026-04-08 14:44 39.17938 23.50301 45 ft 8 kts 289°
2026-04-08 14:45 39.17951 23.50259 50 ft 5 kts 291°
2026-04-08 14:45 39.17955 23.50245 52 ft 0 kts 290°